CAPE
0 0 7 3 0 4 0 0 1 0 0 78 76 156 290 848 1161 1136 1125 1117 885 543 450 686 728 602 485 462 434 325 378 505 560 486 473 478 637 583 534 724 506 489 372 409
0 1 35 0 0 9 1 2 0 0 24 123 157 372 566 656 1123 1224 1220 1194 1081 876 633 823 811 423 330 560 485 242 281 372 397 491 514 560 700 499 377 465 592 482 416 511
0 3 6 1 6 0 13 10 0 0 40 132 132 173 332 523 698 929 1150 1270 1231 638 533 645 859 774 524 401 585 615 590 545 681 699 462 804 670 318 37 153 382 579 590 571
0 8 0 2 1 5 22 1 0 0 0 30 116 189 154 155 349 401 636 843 1018 721 604 630 564 663 685 503 654 723 648 646 278 936 1067 854 159 139 62 252 607 848 848 777
0 0 0 0 0 0 0 0 0 0 0 1 32 82 0 55 124 158 466 718 718 683 621 664 666 615 635 832 720 644 419 192 164 660 1120 903 300 347 331 690 520 165 154 435
0 0 0 0 0 0 0 0 0 0 0 0 0 5 0 0 35 9 332 440 483 745 1019 1156 1269 1237 1090 942 926 793 671 643 430 570 929 1136 1170 653 79 116 174 168 96 177
0 0 0 0 0 0 0 0 0 0 0 0 0 0 0 0 0 2 170 177 422 1182 1333 1592 1601 1567 1498 1274 1039 957 813 770 937 979 1321 1403 784 66 136 186 145 182 89 27
0 0 9 0 0 0 0 0 0 0 0 0 0 0 0 0 0 7 74 258 887 1245 1279 1768 1939 1900 1799 1607 1328 1198 1122 1540 1836 1887 1700 936 35 311 151 90 40 161 79 37
0 0 0 0 0 0 0 0 0 0 0 0 0 2 0 2 35 40 61 252 923 1166 1339 2014 2382 2299 2267 2162 2075 1862 1749 2065 1845 1229 357 79 23 548 442 176 58 21 107 79
0 0 0 1 0 0 0 0 0 0 0 0 0 29 11 4 24 113 73 244 1069 1253 1313 1602 2246 2400 2447 2469 2454 2332 2139 1652 1151 657 820 143 402 606 658 529 232 11 0 66
0 5 5 7 0 3 0 0 0 0 0 0 0 14 24 8 88 133 101 484 1209 1341 1384 1536 1912 2216 2224 2234 2167 2023 1515 1303 1233 1040 927 718 623 692 526 395 271 102 93 187
10 6 1 0 0 26 0 0 0 0 0 68 33 14 2 54 22 28 59 410 1257 1350 1479 1549 1700 1713 1871 2177 2126 1887 1734 1557 1353 1155 942 1067 694 366 357 434 506 438 385 397
0 0 0 0 0 49 61 35 23 15 11 9 13 13 4 67 32 66 136 273 932 1488 1649 1597 1489 861 943 1443 1252 1300 1420 1529 1371 1132 1079 708 393 333 405 408 424 294 242 209
0 0 0 0 0 15 83 127 131 86 28 4 13 13 0 22 91 215 264 349 908 1410 1667 1415 1396 761 424 831 1106 1640 1871 1603 1216 900 575 336 396 447 416 62 16 0 0 21
0 0 0 1 0 24 80 80 61 27 8 10 2 1 35 53 41 119 212 684 984 1380 1660 1209 903 384 394 145 638 1727 1878 1487 706 328 275 297 481 379 13 0 0 0 0 0
0 0 10 64 55 61 54 33 18 136 244 200 104 52 23 0 37 98 690 733 1044 1288 1277 1046 481 102 9 74 770 1272 1673 1034 254 119 156 163 31 4 6 20 12 13 16 14
0 0 22 112 148 114 55 57 55 140 212 84 33 2 30 151 121 166 779 840 997 1087 1032 871 743 144 151 676 921 1234 930 240 128 78 70 56 11 35 34 55 42 24 16 1
4 58 75 158 149 79 7 61 29 25 11 13 2 23 490 443 749 266 926 965 1025 1122 1052 668 575 57 16 963 1243 876 101 123 91 105 77 79 124 195 198 66 21 4 0 0
158 177 186 144 156 33 126 106 95 78 13 18 0 348 967 1075 1237 970 1229 1142 1049 1237 1212 976 385 26 529 800 1175 607 136 172 275 297 213 149 245 153 39 6 1 0 0 0
415 257 168 293 193 166 161 213 159 119 38 179 772 782 948 1320 1343 1312 1143 1236 1206 1175 1231 872 195 489 508 702 839 758 397 286 336 428 177 71 3 7 0 0 0 0 0 0
241 225 315 211 196 133 149 150 54 10 1 563 588 717 687 1252 970 1149 1421 1308 1238 1120 701 334 100 597 901 589 546 624 409 299 131 129 72 31 11 0 0 0 0 0 0 0
267 252 218 194 195 158 138 172 92 0 644 983 785 721 852 1153 803 564 625 788 365 466 642 586 624 507 264 243 195 130 81 70 99 104 44 13 0 0 0 0 0 0 0 0
107 112 137 130 101 98 95 326 286 362 865 1204 660 685 1277 903 643 412 371 32 99 212 156 84 70 58 28 18 0 8 10 11 14 1 0 0 0 0 0 0 0 0 0 0
82 90 35 63 69 61 112 422 497 583 506 1117 1157 913 873 658 347 424 522 333 302 152 103 29 19 15 57 51 0 0 0 0 0 0 0 0 0 0 0 0 0 0 0 0
57 61 47 31 31 13 144 163 439 468 720 910 1214 1083 1042 912 683 575 477 352 235 133 60 51 54 18 0 0 0 0 0 0 0 0 0 0 0 0 0 0 0 1 2 5
21 33 20 15 7 71 309 418 407 694 849 975 1209 1193 1043 741 608 560 480 482 228 43 14 0 0 0 0 0 0 0 0 0 0 0 0 0 0 0 0 0 0 0 0 0
CIN
0 0 -38 -41 0 0 0 0 -1 0 0 -147 -162 -185 -225 -126 -132 -87 -61 -41 -52 -49 -77 -97 -54 -53 -365 -212 -131 -84 -282 -246 -147 -141 -100 -137 -151 -121 -98 -60 -63 -41 -21 -23
0 -12 -48 0 0 -1 -4 -6 0 0 -234 -94 -109 -120 -194 -256 -147 -107 -77 -56 -47 -85 -83 -94 -59 -46 -277 -329 -287 -94 -43 -40 -64 -76 -84 -136 -73 -45 -30 -28 -39 -42 -48 -37
0 -39 -25 -2 -2 0 -10 -5 0 0 -126 -87 -68 -61 -110 -111 -129 -134 -114 -73 -59 -40 -49 -138 -102 -57 -35 -223 -300 -175 -78 -77 -74 -56 -73 -127 -47 -1 -9 -43 -55 -86 -77 -37
0 -54 0 -3 -2 -7 -9 -1 0 0 -31 -24 -58 -25 -50 -60 -104 -167 -135 -97 -76 -41 -63 -39 -176 -115 -46 -35 -243 -139 -129 -109 -271 -106 -51 -38 -56 -95 -35 -42 -56 -55 -40 -40
0 0 0 0 0 0 0 0 0 0 0 -14 -91 -27 0 -82 -63 -124 -114 -73 -65 -80 -86 -55 -72 -71 -165 -36 -29 -32 -48 -66 -66 -154 -73 -25 -61 -43 -41 -22 -22 -85 -148 -30
0 0 0 0 0 0 0 0 0 0 0 0 0 -66 0 0 -73 -86 -122 -107 -96 -103 -97 -96 -77 -75 -65 -35 -37 -25 -22 -41 -47 -182 -139 -82 -28 -24 -192 -200 -218 -191 -168 -67
0 0 0 0 0 0 0 0 0 0 0 0 0 0 0 0 0 -50 -115 -93 -137 -128 -156 -144 -148 -194 -89 -50 -34 -34 -36 -25 -46 -72 -27 -21 -24 -226 -205 -188 -178 -146 -111 -117
0 0 -3 0 0 0 0 0 0 0 0 0 0 0 0 0 0 -303 -101 -109 -176 -155 -158 -159 -151 -126 -94 -66 -74 -49 -48 -40 -43 -39 -17 -39 -342 -61 -72 -211 -211 -122 -103 -84
0 0 -1 0 0 0 0 0 0 0 0 0 0 -19 0 -44 -192 -203 -59 -108 -162 -178 -173 -139 -129 -164 -117 -101 -80 -63 -61 -67 -59 -69 -100 -95 -79 -34 -36 -56 -182 -162 -114 -101
0 0 0 -3 0 0 0 0 0 0 0 -7 0 -252 -193 -218 -183 -135 -51 -112 -160 -202 -212 -186 -178 -150 -144 -131 -107 -77 -76 -91 -105 -100 -51 -73 -45 -30 -22 -36 -61 -40 0 -135
-3 -8 -9 -8 0 -13 0 0 0 0 0 0 0 -84 -156 -161 -186 -75 -103 -336 -193 -231 -241 -184 -174 -165 -145 -126 -111 -96 -109 -98 -60 -51 -41 -30 -31 -30 -35 -32 -40 -76 -88 -80
-16 -9 -3 0 -1 -43 0 0 0 0 0 -46 -82 -91 -47 -291 -141 -93 -161 -173 -194 -236 -192 -127 -81 -48 -56 -113 -99 -92 -69 -53 -50 -36 -35 -21 -28 -56 -34 -25 -25 -33 -33 -47
0 -4 0 0 0 -35 -19 -24 -22 -28 -41 -55 -53 -35 -50 -316 -62 -113 -222 -133 -226 -152 -149 -106 -113 -77 -65 -43 -72 -107 -71 -36 -40 -49 -38 -51 -51 -40 -35 -43 -44 -72 -118 -112
0 0 0 0 0 -37 -32 -22 -18 -15 -39 -18 -61 -62 -20 -179 -114 -118 -82 -388 -385 -182 -148 -171 -153 -114 -114 -65 -35 -40 -42 -41 -84 -114 -124 -93 -74 -55 -52 -87 -80 0 0 -114
0 0 0 -2 0 -67 -36 -20 -16 -31 -59 -49 -56 -51 -101 -76 -25 -111 -58 -519 -381 -251 -164 -135 -112 -55 -459 -228 -30 -61 -34 -88 -175 -183 -147 -115 -76 -76 -17 0 0 0 0 0
0 0 -140 -172 -74 -37 -35 -47 -72 -69 -64 -43 -29 -33 -137 -20 -11 -33 -593 -509 -350 -247 -163 -109 -33 -21 -568 -317 -32 -45 -78 -127 -219 -193 -149 -131 -167 -97 -68 -58 -1 -55 -48 -43
0 0 -97 -95 -93 -60 -49 -64 -64 -53 -46 -43 -40 -67 -67 -80 -60 -163 -527 -435 -305 -188 -132 -56 -23 -33 -107 -67 -48 -57 -84 -145 -162 -170 -157 -158 -10 -5 -5 -73 -12 -77 -149 -31
-140 -93 -94 -106 -69 -27 -34 -151 -57 -46 -53 -65 -38 -74 -316 -298 -600 -669 -409 -261 -267 -186 -88 -148 -46 -42 -21 -56 -56 -65 -128 -129 -78 -12 -29 -56 -83 -44 -40 -10 -82 -76 0 0
-98 -91 -55 -75 -48 -29 -83 -80 -113 -82 -61 -106 0 -268 -507 -421 -370 -456 -349 -148 -166 -165 -80 -47 -29 -51 -270 -167 -70 -44 -34 -20 -7 0 -65 -37 -12 -28 -113 -128 -3 0 0 0
-94 -109 -59 -48 -37 -26 -25 -45 -78 -63 -78 -140 -170 -166 -413 -264 -128 -186 -379 -289 -145 -95 -61 -32 -25 -316 -238 -123 -71 -61 -18 -30 -9 -1 -8 -131 -95 -97 0 0 0 0 0 0
-40 -80 -41 -54 -38 -46 -49 -190 -72 -60 -6 -96 -203 -61 -437 -196 -100 -153 -181 -197 -98 -46 -39 -48 -45 -167 -116 -49 -47 -57 -48 -27 -49 -92 -66 -58 -53 0 0 0 0 0 0 0
-42 -30 -27 -38 -47 -53 -64 -335 -129 -20 -103 -156 -218 -48 -274 -131 -44 -272 -23 -83 -43 -94 -122 -116 -97 -76 -34 -23 -38 -9 -73 -113 -97 -72 -50 -22 0 0 0 0 0 0 0 0
-56 -43 -64 -87 -65 -146 -154 -259 -208 -137 -74 -109 -65 -46 -42 -53 -51 -76 -27 -128 -222 -44 -109 -66 -133 -125 -75 -59 0 -111 -84 -105 -80 -6 0 0 0 0 0 0 0 0 0 0
-68 -73 -105 -99 -103 -150 -142 -146 -102 -43 -26 -93 -38 -28 -14 -104 -264 -208 -36 -68 -38 -67 -31 -70 -77 -62 -29 -31 0 0 0 0 0 0 0 0 0 0 0 0 0 0 0 0
-82 -101 -214 -353 -324 -267 -126 -104 -48 -109 -319 -153 -29 -25 -66 -42 -63 -50 -56 -46 -38 -47 -50 -60 -31 -19 0 0 0 0 0 0 0 0 0 0 0 0 0 0 0 0 0 0
-119 -236 -151 -154 -233 -187 -80 -54 -53 -309 -189 -103 -29 -19 -24 -35 -80 -44 -43 -31 -61 -61 -48 0 0 0 0 0 0 0 0 0 0 0 0 0 0 0 0 0 0 0 0 0
Wind_Speed
nan nan nan nan nan nan nan nan nan nan nan nan nan 5 5 18 25 27 22 24 23 23 17 20 18 20 21 19 12 12 5 2 8 10 7 6 4 7 9 12 11 12 13 14
nan nan nan nan nan nan nan nan nan nan nan 10 2 6 10 13 18 21 24 20 20 18 20 24 22 22 19 15 14 12 10 4 2 4 6 10 14 19 15 14 12 12 10 14
nan nan nan nan nan nan nan nan nan nan nan 8 12 4 5 10 14 22 20 19 17 22 25 24 23 23 17 19 17 15 8 5 3 6 5 11 18 22 nan 18 11 9 12 11
nan nan nan nan nan nan nan nan nan nan nan nan 8 8 10 15 10 18 18 17 17 17 18 21 21 20 21 18 16 13 11 7 8 5 15 21 23 24 nan 12 6 5 10 11
nan nan nan nan nan nan nan nan nan nan nan nan nan nan nan nan 10 12 17 16 15 13 14 17 18 18 15 13 16 17 14 12 9 12 19 23 25 20 19 12 3 5 10 9
nan nan nan nan nan nan nan nan nan nan nan nan nan nan nan nan nan nan 13 13 9 10 6 8 11 15 17 17 15 19 18 13 13 17 18 21 22 22 nan 13 9 9 nan 18
nan nan nan nan nan nan nan nan nan nan nan nan nan nan nan nan nan nan 21 16 15 9 10 10 2 4 12 18 18 19 23 20 19 19 20 19 18 nan 18 16 14 11 nan nan
nan nan nan nan nan nan nan nan nan nan nan nan nan nan nan nan nan nan nan 20 17 12 11 16 8 9 12 17 20 20 20 18 18 20 19 17 nan 13 14 nan nan 15 nan nan
nan nan nan nan nan nan nan nan nan nan nan nan nan nan nan nan nan nan nan 13 13 14 16 17 15 17 18 15 16 17 16 17 19 19 16 nan nan 13 14 16 nan nan 19 nan
nan nan nan nan nan nan nan nan nan nan nan nan nan nan nan nan nan 15 nan 11 12 16 17 18 19 19 19 15 17 18 18 18 18 21 22 19 16 17 16 16 15 nan nan nan
nan nan nan nan nan nan nan nan nan nan nan nan nan nan nan nan nan 14 8 4 15 19 21 18 20 17 15 17 19 17 17 19 18 20 23 22 17 14 13 16 18 17 nan 15
nan nan nan nan nan nan nan nan nan nan nan nan nan nan nan nan nan nan nan 14 18 16 26 27 30 28 18 20 20 19 17 20 21 21 21 22 17 16 15 14 15 18 18 16
nan nan nan nan nan nan nan nan nan nan nan nan nan nan nan nan nan nan 4 17 25 35 37 33 30 27 21 17 15 20 19 19 20 22 22 23 19 15 16 18 16 15 15 15
nan nan nan nan nan nan nan 16 15 nan nan nan nan nan nan nan nan 11 29 28 32 32 30 28 30 30 39 30 13 13 20 20 22 23 24 22 21 19 17 nan nan nan nan nan
nan nan nan nan nan nan nan nan nan nan nan nan nan nan nan nan nan 29 28 32 34 29 28 28 24 33 55 30 16 8 14 19 23 27 25 22 18 21 nan nan nan nan nan nan
nan nan nan nan nan nan nan nan nan 30 35 25 25 nan nan nan nan nan 32 37 40 31 31 26 33 28 nan nan 10 4 16 20 25 29 27 23 nan nan nan nan nan nan nan nan
nan nan nan 14 18 27 nan nan nan 31 35 nan nan nan nan 19 22 33 36 41 34 32 31 24 20 23 29 22 11 13 13 16 20 nan nan nan nan nan nan nan nan nan nan nan
nan nan nan 20 25 nan nan nan nan nan nan nan nan nan 23 25 25 24 23 31 34 35 32 32 18 nan nan 21 20 26 25 19 nan 17 nan nan 32 33 36 nan nan nan nan nan
23 22 26 27 24 nan 22 18 nan nan nan nan nan 26 25 24 23 23 19 34 34 29 25 23 24 nan 25 28 23 24 23 23 20 19 24 27 32 37 nan nan nan nan nan nan
28 32 31 28 32 30 19 22 27 28 nan 24 23 19 29 28 31 21 31 36 36 24 27 26 24 29 28 24 25 25 26 27 29 33 32 nan nan nan nan nan nan nan nan nan
31 33 33 32 35 23 20 29 nan nan nan 30 31 26 27 27 28 27 34 29 23 23 26 28 29 34 30 25 28 32 33 32 30 35 nan nan nan nan nan nan nan nan nan nan
31 37 34 38 35 22 32 32 nan nan 23 24 25 24 33 31 33 43 20 31 25 16 27 34 37 34 29 30 35 40 nan nan nan 36 nan nan nan nan nan nan nan nan nan nan
24 27 26 31 26 nan nan 25 26 28 16 22 22 28 39 37 34 24 10 nan nan 20 34 nan nan nan nan nan nan nan nan nan nan nan nan nan nan nan nan nan nan nan nan nan
nan nan nan nan nan nan 19 21 23 32 22 22 26 34 39 33 42 35 18 38 35 31 38 nan nan nan nan nan nan nan nan nan nan nan nan nan nan nan nan nan nan nan nan nan
nan nan nan nan nan nan 8 12 17 20 16 22 18 27 29 42 40 40 34 38 36 39 nan nan nan nan nan nan nan nan nan nan nan nan nan nan nan nan nan nan nan nan nan nan
nan nan nan nan nan nan 16 18 19 20 13 25 32 36 34 33 40 39 38 37 42 nan nan nan nan nan nan nan nan nan nan nan nan nan nan nan nan nan nan nan nan nan nan nan
Wind_Direction
nan nan nan nan nan nan nan nan nan nan nan nan nan 308 356 16 0 10 8 22 25 27 35 41 25 25 42 28 11 42 17 234 239 238 245 244 264 249 250 261 259 273 287 290
nan nan nan nan nan nan nan nan nan nan nan 289 22 276 339 9 2 7 1 28 31 26 31 45 44 38 38 52 29 30 51 18 318 263 227 249 237 241 224 234 253 270 268 280
nan nan nan nan nan nan nan nan nan nan nan 264 312 286 337 6 360 360 358 10 33 32 28 23 36 36 45 41 33 29 14 276 306 336 299 254 246 244 nan 207 218 258 268 279
nan nan nan nan nan nan nan nan nan nan nan nan 298 330 351 350 12 348 358 0 31 37 17 23 10 17 28 34 15 353 358 351 6 325 322 266 286 335 nan 143 162 230 268 300
nan nan nan nan nan nan nan nan nan nan nan nan nan nan nan nan 4 358 350 358 15 22 15 25 17 6 358 8 14 1 354 353 351 337 346 341 350 14 17 30 48 266 272 291
nan nan nan nan nan nan nan nan nan nan nan nan nan nan nan nan nan nan 348 342 2 344 358 7 17 1 353 346 347 1 8 14 3 355 345 342 339 342 nan 353 338 311 nan 287
nan nan nan nan nan nan nan nan nan nan nan nan nan nan nan nan nan nan 338 313 314 319 313 286 352 332 354 342 339 355 9 11 11 357 343 343 331 nan 344 346 340 318 nan nan
nan nan nan nan nan nan nan nan nan nan nan nan nan nan nan nan nan nan nan 283 282 295 277 276 284 319 323 353 355 351 357 357 345 337 335 329 nan 346 350 nan nan 339 nan nan
nan nan nan nan nan nan nan nan nan nan nan nan nan nan nan nan nan nan nan 282 285 295 282 286 320 323 320 335 341 349 339 338 343 336 329 nan nan 341 357 3 nan nan 351 nan
nan nan nan nan nan nan nan nan nan nan nan nan nan nan nan nan nan 333 nan 333 303 281 288 311 314 305 307 307 323 327 336 335 341 339 345 339 344 354 354 354 357 nan nan nan
nan nan nan nan nan nan nan nan nan nan nan nan nan nan nan nan nan 339 294 327 328 309 307 309 283 280 284 280 298 306 316 329 333 335 347 346 343 347 348 357 1 3 nan 5
nan nan nan nan nan nan nan nan nan nan nan nan nan nan nan nan nan nan nan 318 336 314 273 260 249 239 219 280 293 305 317 319 330 334 338 345 336 332 340 345 352 355 0 1
nan nan nan nan nan nan nan nan nan nan nan nan nan nan nan nan nan nan 288 303 281 274 274 280 271 262 246 247 259 297 306 309 318 322 330 333 338 326 324 323 324 329 336 343
nan nan nan nan nan nan nan 236 243 nan nan nan nan nan nan nan nan 293 301 292 278 279 285 294 284 280 271 234 225 262 288 299 309 316 310 318 330 324 314 nan nan nan nan nan
nan nan nan nan nan nan nan nan nan nan nan nan nan nan nan nan nan 319 310 302 292 294 312 318 308 315 296 278 206 245 296 309 311 303 303 310 317 320 nan nan nan nan nan nan
nan nan nan nan nan nan nan nan nan 271 280 284 294 nan nan nan nan nan 310 310 313 304 318 326 313 333 nan nan 306 334 319 312 301 300 304 305 nan nan nan nan nan nan nan nan
nan nan nan 227 230 252 nan nan nan 267 278 nan nan nan nan 294 317 306 309 314 314 320 322 312 322 326 346 4 321 282 285 291 289 nan nan nan nan nan nan nan nan nan nan nan
nan nan nan 240 245 nan nan nan nan nan nan nan nan nan 287 290 283 281 313 317 323 323 316 310 334 nan nan 307 302 293 281 279 nan 316 nan nan 307 306 304 nan nan nan nan nan
219 232 237 254 263 nan 263 284 nan nan nan nan nan 301 289 284 281 270 278 295 309 314 306 305 313 nan 305 300 314 306 296 302 300 296 301 300 300 296 nan nan nan nan nan nan
223 237 247 250 261 277 295 281 289 294 nan 311 299 308 290 282 277 279 276 280 290 296 281 288 293 296 290 290 305 303 296 298 294 290 296 nan nan nan nan nan nan nan nan nan
237 237 255 260 272 278 314 299 nan nan nan 300 295 297 299 280 265 238 261 256 257 265 283 290 290 278 275 284 294 291 289 279 280 278 nan nan nan nan nan nan nan nan nan nan
263 262 259 257 267 286 302 288 nan nan 281 299 277 272 280 288 289 264 205 253 233 261 286 286 278 276 276 283 290 286 nan nan nan 285 nan nan nan nan nan nan nan nan nan nan
254 265 272 269 274 nan nan 286 288 293 295 303 261 279 281 278 258 278 314 nan nan 296 282 nan nan nan nan nan nan nan nan nan nan nan nan nan nan nan nan nan nan nan nan nan
nan nan nan nan nan nan 276 275 278 289 259 247 282 283 289 288 295 305 282 283 290 288 288 nan nan nan nan nan nan nan nan nan nan nan nan nan nan nan nan nan nan nan nan nan
nan nan nan nan nan nan 273 282 302 307 246 248 267 268 273 281 286 292 291 293 300 290 nan nan nan nan nan nan nan nan nan nan nan nan nan nan nan nan nan nan nan nan nan nan
nan nan nan nan nan nan 277 271 282 294 272 261 269 265 268 277 282 283 281 279 280 nan nan nan nan nan nan nan nan nan nan nan nan nan nan nan nan nan nan nan nan nan nan nan